QPF
0.02 0.03 0.03 0.04 0.05 0.06 0.06 0.07 0.09 0.10 0.07 0.06 0.07 0.07 0.06 0.07 0.07 0.05 0.04 0.04 0.04 0.04 0.04 0.04 0.03 0.04 0.05 0.07 0.09 0.08 0.07 0.08 0.10 0.10 0.10 0.10 0.08 0.05
0.03 0.04 0.05 0.05 0.05 0.04 0.04 0.04 0.05 0.06 0.06 0.06 0.07 0.07 0.05 0.05 0.05 0.05 0.04 0.03 0.03 0.03 0.03 0.03 0.04 0.04 0.05 0.07 0.07 0.08 0.08 0.08 0.08 0.08 0.08 0.08 0.08 0.07
0.01 0.02 0.03 0.04 0.03 0.03 0.03 0.03 0.04 0.04 0.05 0.06 0.07 0.07 0.07 0.06 0.05 0.05 0.04 0.03 0.03 0.04 0.04 0.04 0.05 0.04 0.05 0.07 0.09 0.09 0.09 0.08 0.08 0.07 0.07 0.06 0.06 0.05
0.01 0.02 0.02 0.02 0.03 0.03 0.03 0.03 0.03 0.04 0.05 0.06 0.07 0.07 0.07 0.07 0.07 0.06 0.05 0.04 0.03 0.04 0.04 0.04 0.05 0.05 0.05 0.06 0.06 0.08 0.11 0.10 0.08 0.07 0.06 0.05 0.05 0.04
0.01 0.01 0.02 0.03 0.04 0.04 0.04 0.03 0.03 0.03 0.04 0.05 0.06 0.05 0.06 0.06 0.05 0.05 0.04 0.06 0.06 0.05 0.04 0.04 0.05 0.05 0.05 0.05 0.05 0.06 0.09 0.11 0.10 0.08 0.07 0.06 0.05 0.04
0.00 0.01 0.02 0.02 0.04 0.03 0.02 0.02 0.02 0.02 0.02 0.03 0.05 0.05 0.06 0.06 0.06 0.05 0.05 0.05 0.05 0.05 0.06 0.05 0.06 0.06 0.06 0.05 0.04 0.05 0.06 0.08 0.10 0.10 0.08 0.06 0.04 0.04
0.01 0.01 0.01 0.01 0.01 0.01 0.01 0.02 0.02 0.02 0.03 0.04 0.05 0.06 0.06 0.06 0.06 0.05 0.05 0.05 0.04 0.03 0.04 0.03 0.04 0.06 0.07 0.07 0.06 0.06 0.07 0.08 0.09 0.08 0.06 0.05 0.04 0.03
0.01 0.01 0.01 0.01 0.01 0.01 0.01 0.01 0.02 0.03 0.04 0.04 0.05 0.06 0.07 0.06 0.05 0.04 0.04 0.05 0.05 0.04 0.03 0.03 0.03 0.04 0.04 0.05 0.07 0.07 0.06 0.06 0.06 0.06 0.05 0.04 0.03 0.02
0.02 0.02 0.01 0.00 0.01 0.02 0.03 0.03 0.04 0.04 0.04 0.04 0.05 0.06 0.06 0.06 0.05 0.05 0.05 0.05 0.04 0.03 0.03 0.04 0.04 0.04 0.04 0.05 0.05 0.05 0.04 0.03 0.03 0.03 0.03 0.02 0.02 0.02
0.01 0.01 0.01 0.01 0.01 0.03 0.05 0.06 0.07 0.07 0.07 0.06 0.08 0.07 0.05 0.05 0.05 0.04 0.04 0.04 0.04 0.03 0.03 0.04 0.04 0.04 0.03 0.04 0.04 0.03 0.02 0.01 0.01 0.01 0.02 0.02 0.01 0.01
0.02 0.02 0.02 0.01 0.02 0.03 0.05 0.07 0.08 0.08 0.08 0.07 0.08 0.08 0.07 0.05 0.05 0.04 0.04 0.04 0.04 0.04 0.03 0.03 0.04 0.04 0.04 0.03 0.02 0.01 0.01 0.01 0.01 0.00 0.01 0.01 0.01 0.01
0.03 0.03 0.03 0.03 0.03 0.04 0.05 0.06 0.08 0.09 0.07 0.09 0.10 0.10 0.07 0.05 0.04 0.03 0.03 0.04 0.04 0.04 0.03 0.03 0.03 0.03 0.04 0.03 0.02 0.02 0.01 0.00 0.00 0.00 0.00 0.00 0.00 0.00
0.03 0.05 0.05 0.06 0.05 0.05 0.05 0.06 0.07 0.08 0.07 0.07 0.07 0.08 0.08 0.06 0.04 0.02 0.02 0.03 0.04 0.05 0.03 0.03 0.04 0.04 0.04 0.04 0.03 0.02 0.01 0.01 0.01 0.01 0.01 0.00 0.00 0.00
0.03 0.05 0.06 0.06 0.05 0.05 0.05 0.05 0.05 0.05 0.05 0.05 0.06 0.06 0.06 0.05 0.03 0.02 0.02 0.02 0.03 0.03 0.03 0.02 0.03 0.03 0.03 0.03 0.03 0.02 0.01 0.01 0.01 0.01 0.01 0.01 0.00 0.00
0.03 0.04 0.04 0.05 0.05 0.04 0.04 0.04 0.04 0.04 0.04 0.04 0.04 0.04 0.03 0.03 0.02 0.02 0.02 0.03 0.02 0.02 0.01 0.01 0.02 0.02 0.02 0.02 0.02 0.02 0.02 0.01 0.01 0.01 0.02 0.02 0.01 0.01
0.02 0.02 0.02 0.02 0.02 0.02 0.02 0.02 0.02 0.02 0.02 0.03 0.03 0.02 0.02 0.02 0.02 0.02 0.02 0.03 0.02 0.02 0.01 0.01 0.01 0.02 0.02 0.02 0.02 0.02 0.02 0.02 0.02 0.02 0.01 0.01 0.01 0.02
0.01 0.01 0.01 0.01 0.01 0.00 0.01 0.01 0.01 0.01 0.02 0.02 0.02 0.02 0.02 0.02 0.02 0.02 0.02 0.02 0.02 0.02 0.01 0.01 0.01 0.01 0.01 0.01 0.01 0.02 0.02 0.02 0.02 0.02 0.01 0.01 0.01 0.01
0.00 0.01 0.00 0.00 0.00 0.00 0.00 0.00 0.00 0.01 0.01 0.01 0.01 0.01 0.01 0.01 0.02 0.02 0.02 0.02 0.02 0.02 0.01 0.01 0.01 0.01 0.01 0.00 0.01 0.01 0.01 0.01 0.02 0.01 0.01 0.01 0.01 0.00
0.00 0.00 0.00 0.00 0.00 0.00 0.00 0.00 0.00 0.00 0.00 0.01 0.01 0.01 0.01 0.01 0.01 0.01 0.01 0.01 0.01 0.01 0.01 0.01 0.01 0.01 0.01 0.01 0.01 0.01 0.01 0.01 0.01 0.01 0.01 0.01 0.01 0.01
0.00 0.00 0.00 0.00 0.00 0.00 0.00 0.00 0.00 0.00 0.00 0.00 0.00 0.00 0.01 0.01 0.01 0.01 0.01 0.01 0.01 0.01 0.01 0.01 0.01 0.01 0.01 0.01 0.01 0.01 0.01 0.02 0.02 0.02 0.02 0.02 0.01 0.01
0.00 0.00 0.00 0.00 0.00 0.00 0.00 0.00 0.00 0.00 0.00 0.00 0.00 0.00 0.00 0.00 0.00 0.00 0.00 0.00 0.00 0.00 0.00 0.00 0.00 0.00 0.01 0.01 0.00 0.00 0.00 0.01 0.01 0.01 0.01 0.01 0.02 0.01
0.00 0.00 0.00 0.00 0.00 0.00 0.00 0.00 0.00 0.00 0.00 0.00 0.00 0.00 0.00 0.00 0.00 0.00 0.00 0.00 0.00 0.00 0.00 0.00 0.00 0.00 0.00 0.00 0.00 0.00 0.00 0.01 0.00 0.00 0.00 0.01 0.01 0.02
0.00 0.00 0.00 0.00 0.00 0.00 0.00 0.00 0.00 0.00 0.00 0.00 0.00 0.00 0.00 0.00 0.00 0.00 0.00 0.00 0.00 0.00 0.00 0.00 0.00 0.00 0.00 0.00 0.00 0.00 0.00 0.00 0.00 0.00 0.00 0.00 0.00 0.01
MSLP
1018.71 1018.66 1018.61 1018.57 1018.55 1018.58 1018.67 1018.83 1019.04 1019.30 1019.59 1019.89 1020.18 1020.43 1020.65 1020.83 1020.99 1021.16 1021.35 1021.59 1021.90 1022.27 1022.69 1023.15 1023.62 1024.07 1024.49 1024.85 1025.16 1025.43 1025.65 1025.86 1026.07 1026.30 1026.54 1026.79 1027.04 1027.29
1018.50 1018.42 1018.35 1018.29 1018.26 1018.28 1018.38 1018.56 1018.82 1019.15 1019.53 1019.95 1020.37 1020.76 1021.11 1021.41 1021.67 1021.90 1022.11 1022.32 1022.56 1022.84 1023.16 1023.50 1023.87 1024.25 1024.62 1024.96 1025.27 1025.55 1025.80 1026.03 1026.24 1026.44 1026.64 1026.84 1027.02 1027.17
1018.32 1018.22 1018.12 1018.03 1017.99 1018.01 1018.11 1018.31 1018.61 1018.99 1019.45 1019.95 1020.47 1020.97 1021.42 1021.82 1022.14 1022.40 1022.62 1022.80 1022.98 1023.18 1023.41 1023.67 1023.97 1024.29 1024.63 1024.97 1025.30 1025.61 1025.89 1026.13 1026.35 1026.54 1026.69 1026.82 1026.92 1026.98
1018.24 1018.11 1017.98 1017.87 1017.82 1017.83 1017.93 1018.14 1018.45 1018.87 1019.37 1019.93 1020.51 1021.07 1021.58 1022.03 1022.38 1022.66 1022.86 1023.02 1023.15 1023.28 1023.43 1023.63 1023.88 1024.17 1024.50 1024.86 1025.21 1025.55 1025.87 1026.14 1026.36 1026.53 1026.64 1026.71 1026.73 1026.72
1018.30 1018.12 1017.96 1017.83 1017.76 1017.76 1017.85 1018.06 1018.38 1018.80 1019.31 1019.89 1020.48 1021.06 1021.59 1022.04 1022.41 1022.67 1022.86 1022.98 1023.06 1023.15 1023.25 1023.41 1023.62 1023.90 1024.23 1024.59 1024.97 1025.35 1025.69 1025.98 1026.20 1026.36 1026.45 1026.47 1026.44 1026.37
1018.47 1018.26 1018.06 1017.90 1017.80 1017.78 1017.86 1018.05 1018.35 1018.76 1019.25 1019.81 1020.38 1020.94 1021.45 1021.89 1022.23 1022.48 1022.64 1022.73 1022.78 1022.83 1022.90 1023.03 1023.22 1023.48 1023.80 1024.18 1024.57 1024.96 1025.32 1025.62 1025.85 1026.01 1026.08 1026.08 1026.02 1025.92
1018.73 1018.47 1018.24 1018.05 1017.92 1017.88 1017.93 1018.09 1018.36 1018.73 1019.18 1019.68 1020.21 1020.72 1021.20 1021.59 1021.91 1022.12 1022.26 1022.33 1022.36 1022.39 1022.44 1022.54 1022.71 1022.95 1023.26 1023.62 1024.00 1024.39 1024.75 1025.05 1025.29 1025.44 1025.52 1025.52 1025.45 1025.34
1019.03 1018.73 1018.46 1018.23 1018.08 1018.00 1018.02 1018.15 1018.37 1018.68 1019.07 1019.51 1019.98 1020.43 1020.85 1021.20 1021.48 1021.67 1021.79 1021.85 1021.87 1021.89 1021.92 1022.00 1022.14 1022.35 1022.63 1022.95 1023.30 1023.66 1023.99 1024.28 1024.51 1024.67 1024.76 1024.77 1024.72 1024.62
1019.33 1018.99 1018.69 1018.44 1018.25 1018.15 1018.14 1018.22 1018.39 1018.64 1018.96 1019.33 1019.73 1020.11 1020.47 1020.78 1021.02 1021.20 1021.31 1021.36 1021.38 1021.39 1021.41 1021.47 1021.58 1021.74 1021.96 1022.22 1022.51 1022.81 1023.10 1023.36 1023.57 1023.72 1023.81 1023.84 1023.81 1023.74
1019.63 1019.27 1018.95 1018.68 1018.47 1018.35 1018.30 1018.34 1018.45 1018.64 1018.90 1019.19 1019.51 1019.83 1020.13 1020.40 1020.61 1020.77 1020.87 1020.93 1020.95 1020.95 1020.96 1020.99 1021.06 1021.16 1021.31 1021.49 1021.70 1021.92 1022.14 1022.34 1022.51 1022.64 1022.72 1022.76 1022.75 1022.70
1019.93 1019.58 1019.25 1018.98 1018.76 1018.62 1018.55 1018.55 1018.61 1018.75 1018.93 1019.15 1019.40 1019.66 1019.90 1020.12 1020.31 1020.45 1020.54 1020.60 1020.62 1020.62 1020.61 1020.61 1020.62 1020.66 1020.73 1020.82 1020.93 1021.06 1021.19 1021.31 1021.42 1021.50 1021.55 1021.58 1021.57 1021.52
1020.29 1019.94 1019.63 1019.37 1019.15 1019.00 1018.91 1018.88 1018.91 1018.99 1019.11 1019.27 1019.45 1019.64 1019.83 1020.00 1020.15 1020.26 1020.35 1020.39 1020.40 1020.39 1020.36 1020.33 1020.29 1020.27 1020.25 1020.25 1020.26 1020.28 1020.31 1020.34 1020.36 1020.38 1020.39 1020.37 1020.33 1020.27
1020.70 1020.38 1020.09 1019.84 1019.64 1019.49 1019.39 1019.34 1019.33 1019.37 1019.44 1019.53 1019.65 1019.78 1019.91 1020.03 1020.13 1020.22 1020.27 1020.30 1020.29 1020.26 1020.21 1020.14 1020.06 1019.97 1019.88 1019.79 1019.70 1019.63 1019.55 1019.48 1019.41 1019.35 1019.28 1019.19 1019.10 1018.99
1021.15 1020.86 1020.59 1020.37 1020.18 1020.04 1019.94 1019.88 1019.85 1019.85 1019.88 1019.92 1019.98 1020.05 1020.11 1020.18 1020.23 1020.27 1020.28 1020.28 1020.24 1020.19 1020.11 1020.00 1019.88 1019.75 1019.59 1019.43 1019.27 1019.09 1018.92 1018.76 1018.59 1018.43 1018.27 1018.10 1017.94 1017.77
1021.59 1021.32 1021.07 1020.86 1020.69 1020.56 1020.46 1020.40 1020.35 1020.33 1020.33 1020.33 1020.35 1020.36 1020.36 1020.37 1020.36 1020.35 1020.31 1020.26 1020.20 1020.11 1020.00 1019.87 1019.72 1019.54 1019.35 1019.13 1018.90 1018.66 1018.40 1018.14 1017.88 1017.63 1017.37 1017.12 1016.88 1016.64
1021.94 1021.67 1021.43 1021.23 1021.07 1020.95 1020.85 1020.79 1020.75 1020.71 1020.69 1020.67 1020.64 1020.61 1020.57 1020.51 1020.45 1020.37 1020.29 1020.19 1020.09 1019.97 1019.83 1019.67 1019.50 1019.30 1019.08 1018.83 1018.55 1018.25 1017.93 1017.59 1017.25 1016.91 1016.57 1016.24 1015.91 1015.61
1022.13 1021.85 1021.60 1021.39 1021.23 1021.11 1021.02 1020.96 1020.92 1020.89 1020.86 1020.82 1020.77 1020.71 1020.63 1020.52 1020.41 1020.28 1020.15 1020.00 1019.86 1019.70 1019.54 1019.36 1019.17 1018.96 1018.71 1018.44 1018.13 1017.79 1017.42 1017.03 1016.62 1016.21 1015.80 1015.40 1015.02 1014.66
1022.11 1021.80 1021.53 1021.31 1021.13 1021.00 1020.92 1020.86 1020.83 1020.81 1020.78 1020.74 1020.68 1020.60 1020.49 1020.35 1020.20 1020.03 1019.84 1019.66 1019.47 1019.29 1019.10 1018.90 1018.69 1018.46 1018.20 1017.91 1017.57 1017.21 1016.80 1016.37 1015.92 1015.46 1015.00 1014.55 1014.13 1013.74
1021.91 1021.56 1021.26 1021.00 1020.81 1020.67 1020.59 1020.54 1020.51 1020.50 1020.48 1020.44 1020.38 1020.28 1020.16 1019.99 1019.81 1019.61 1019.39 1019.17 1018.95 1018.73 1018.51 1018.28 1018.05 1017.80 1017.52 1017.20 1016.85 1016.45 1016.02 1015.56 1015.08 1014.59 1014.10 1013.63 1013.19 1012.79
1021.57 1021.19 1020.85 1020.58 1020.36 1020.21 1020.12 1020.07 1020.04 1020.03 1020.02 1019.98 1019.92 1019.82 1019.67 1019.50 1019.29 1019.06 1018.82 1018.56 1018.31 1018.05 1017.80 1017.54 1017.28 1016.99 1016.67 1016.33 1015.94 1015.52 1015.06 1014.58 1014.08 1013.57 1013.08 1012.60 1012.16 1011.76
1021.19 1020.79 1020.43 1020.13 1019.90 1019.74 1019.64 1019.58 1019.55 1019.53 1019.51 1019.47 1019.39 1019.28 1019.13 1018.93 1018.71 1018.45 1018.18 1017.90 1017.61 1017.32 1017.03 1016.73 1016.41 1016.08 1015.72 1015.33 1014.90 1014.44 1013.96 1013.46 1012.95 1012.44 1011.94 1011.47 1011.04 1010.66
1020.84 1020.43 1020.08 1019.78 1019.54 1019.37 1019.26 1019.18 1019.14 1019.10 1019.05 1018.99 1018.89 1018.76 1018.59 1018.37 1018.12 1017.85 1017.55 1017.24 1016.92 1016.59 1016.25 1015.90 1015.53 1015.14 1014.72 1014.28 1013.81 1013.31 1012.80 1012.28 1011.76 1011.25 1010.77 1010.31 1009.90 1009.53
1020.56 1020.18 1019.84 1019.56 1019.33 1019.16 1019.03 1018.94 1018.87 1018.80 1018.72 1018.62 1018.49 1018.32 1018.11 1017.87 1017.60 1017.30 1016.98 1016.64 1016.29 1015.92 1015.53 1015.13 1014.70 1014.25 1013.77 1013.27 1012.75 1012.22 1011.68 1011.14 1010.62 1010.12 1009.65 1009.22 1008.82 1008.46
Thickness
5606 5606 5607 5608 5608 5608 5609 5608 5607 5605 5605 5605 5605 5605 5605 5605 5605 5606 5606 5605 5605 5605 5605 5605 5605 5604 5604 5604 5603 5602 5600 5599 5598 5596 5595 5594 5592 5590
5595 5596 5597 5599 5600 5600 5600 5601 5601 5600 5598 5598 5597 5596 5596 5596 5596 5597 5598 5597 5596 5596 5596 5596 5597 5596 5596 5595 5594 5593 5592 5591 5590 5589 5587 5585 5584 5582
5588 5589 5589 5589 5591 5591 5592 5593 5593 5593 5591 5590 5589 5588 5587 5588 5588 5589 5590 5591 5590 5589 5588 5588 5588 5588 5588 5587 5587 5586 5584 5583 5582 5581 5580 5578 5576 5575
5580 5580 5580 5581 5581 5582 5583 5584 5584 5583 5583 5581 5581 5581 5580 5580 5581 5581 5583 5584 5584 5582 5581 5580 5580 5580 5580 5580 5579 5578 5578 5576 5575 5574 5573 5572 5570 5568
5571 5571 5571 5572 5572 5573 5574 5576 5576 5576 5576 5576 5575 5574 5574 5574 5574 5575 5576 5577 5578 5576 5574 5573 5573 5573 5572 5572 5572 5571 5571 5570 5568 5567 5566 5565 5563 5562
5562 5563 5563 5564 5564 5565 5567 5567 5568 5569 5569 5570 5570 5570 5569 5568 5569 5570 5571 5572 5573 5572 5570 5569 5568 5567 5567 5566 5566 5565 5564 5563 5562 5561 5560 5559 5557 5556
5555 5556 5555 5555 5554 5556 5559 5560 5562 5563 5565 5565 5565 5565 5564 5563 5564 5565 5566 5567 5567 5567 5567 5566 5566 5565 5563 5562 5561 5560 5559 5558 5557 5556 5555 5554 5552 5551
5549 5550 5550 5550 5549 5549 5550 5551 5553 5557 5559 5560 5561 5560 5558 5559 5559 5561 5562 5563 5563 5563 5563 5563 5563 5563 5561 5560 5558 5556 5554 5553 5552 5551 5550 5549 5548 5547
5543 5545 5547 5546 5546 5547 5547 5547 5549 5549 5551 5555 5556 5556 5556 5556 5556 5557 5558 5559 5559 5560 5559 5560 5560 5559 5558 5557 5554 5552 5550 5549 5548 5547 5546 5545 5544 5543
5539 5540 5540 5541 5541 5541 5545 5547 5548 5548 5549 5550 5552 5552 5552 5551 5552 5553 5554 5555 5556 5557 5557 5556 5557 5557 5557 5554 5551 5549 5548 5547 5545 5544 5543 5542 5541 5540
5536 5536 5537 5537 5534 5535 5541 5544 5545 5544 5544 5545 5546 5546 5546 5546 5546 5549 5552 5554 5556 5557 5556 5555 5555 5555 5554 5553 5551 5548 5547 5545 5544 5542 5541 5539 5538 5537
5535 5534 5531 5531 5530 5532 5537 5540 5541 5542 5543 5544 5543 5544 5545 5545 5544 5546 5550 5553 5554 5554 5555 5553 5553 5553 5552 5553 5551 5548 5546 5545 5543 5542 5541 5539 5537 5535
5535 5534 5531 5528 5528 5530 5533 5536 5536 5537 5541 5543 5544 5545 5546 5547 5548 5548 5549 5551 5552 5553 5553 5552 5551 5552 5551 5551 5551 5550 5549 5547 5545 5544 5541 5539 5537 5534
5533 5533 5530 5528 5528 5530 5532 5533 5534 5536 5542 5544 5545 5545 5546 5548 5548 5549 5548 5549 5549 5550 5550 5549 5550 5549 5549 5549 5549 5550 5549 5547 5546 5546 5544 5541 5537 5535
5532 5529 5529 5529 5531 5533 5533 5534 5536 5541 5544 5545 5545 5546 5547 5547 5548 5548 5549 5549 5549 5550 5550 5548 5548 5548 5548 5548 5548 5548 5548 5547 5546 5545 5544 5542 5540 5537
5535 5534 5533 5533 5534 5534 5536 5539 5542 5543 5544 5545 5546 5548 5549 5550 5551 5552 5552 5552 5552 5552 5552 5550 5548 5547 5546 5547 5546 5547 5547 5546 5546 5544 5543 5542 5540 5538
5536 5540 5542 5544 5544 5544 5545 5545 5546 5546 5547 5548 5549 5550 5552 5552 5553 5554 5553 5553 5553 5554 5554 5553 5551 5548 5546 5545 5545 5545 5545 5545 5544 5543 5540 5540 5540 5539
5539 5546 5548 5549 5549 5549 5550 5550 5550 5550 5550 5550 5552 5553 5554 5554 5555 5555 5555 5554 5554 5554 5554 5553 5552 5551 5549 5550 5545 5545 5545 5544 5543 5541 5539 5538 5539 5538
5546 5551 5552 5552 5553 5554 5554 5554 5554 5554 5554 5555 5555 5555 5556 5556 5556 5556 5557 5556 5556 5555 5554 5553 5552 5550 5548 5548 5549 5542 5541 5541 5539 5538 5537 5535 5535 5535
5555 5556 5557 5557 5558 5558 5558 5558 5558 5558 5558 5558 5558 5558 5558 5558 5558 5558 5558 5557 5556 5555 5555 5554 5552 5550 5547 5546 5546 5545 5540 5538 5536 5534 5534 5533 5533 5531
5564 5564 5564 5564 5563 5563 5562 5562 5562 5561 5561 5560 5561 5560 5561 5560 5560 5560 5560 5556 5554 5555 5555 5554 5552 5547 5546 5545 5544 5546 5545 5539 5535 5531 5530 5529 5528 5527
5570 5570 5570 5569 5568 5568 5567 5567 5566 5565 5565 5565 5565 5564 5563 5563 5562 5561 5561 5560 5558 5557 5556 5555 5553 5550 5548 5546 5544 5544 5543 5541 5536 5531 5527 5524 5521 5520
5575 5574 5574 5574 5574 5573 5573 5572 5570 5570 5569 5569 5568 5567 5566 5565 5564 5563 5562 5561 5560 5558 5556 5554 5553 5551 5549 5546 5544 5542 5541 5539 5537 5533 5530 5524 5518 5514